Location: Wald
(31.7579°N, 86.6655°W)
Time: 12:24:20
(UTC+00:00)

CENTAUR R/B - Pass Details

Date: 14 July 2020
Orbit: 760 x 1428 km, 63.5° (Epoch: 05 August)

Event Time Altitude Azimuth Distance (km) Brightness Sun altitude
Exits shadow 08:30:24 20° 147° (SSE) 1,864 3.8 -24.6°
Maximum altitude 08:32:55 27° 108° (ESE) 1,617 3.8 -24.3°
Drops below altitude 10° 08:38:00 10° 53° (NE) 2,701 5.9 -23.6°
Sets 08:41:08 0° 42° (NE) 3,769 7.1 -23.1°
